[TLELIST] Archives

 

[TLELIST] Current TLEs

July 29th 2026 PDT

0 HST 1 20580U 90037B 26210.05780545 .00006477 00000-0 20129-3 0 9990 2 20580 28.4726 154.3021 0001689 251.5991 108.4422 15.31192448794995 0 ISS (ZARYA) 1 25544U 98067A 26210.12010945 .00008919 00000-0 16839-3 0 9990 2 25544 51.6320 92.5793 0007055 349.1886 10.8949 15.49239716578255 0 CXO 1 25867U 99040B 26211.69091559 .00000892 00000-0 00000-0 0 9995 2 25867 56.7373 115.5572 7768340 309.8096 0.7284 0.37795216 17488 ...Continue Reading

[TLELIST] Current TLEs

July 28th 2026 PDT

0 HST 1 20580U 90037B 26209.08014815 .00006899 00000-0 21494-3 0 9995 2 20580 28.4723 160.9885 0001698 238.9636 121.0793 15.31181501794842 0 ISS (ZARYA) 1 25544U 98067A 26209.15252568 .00010831 00000-0 20282-3 0 9993 2 25544 51.6320 97.3682 0007093 345.6120 14.4666 15.49220842578109 0 CXO 1 25867U 99040B 26211.69091559 .00000892 00000-0 00000-0 0 9995 2 25867 56.7373 115.5572 7768340 309.8096 0.7284 0.37795216 17488 ...Continue Reading

[TLELIST] Current TLEs

July 27th 2026 PDT

0 HST 1 20580U 90037B 26208.10248366 .00006351 00000-0 19736-3 0 9996 2 20580 28.4721 167.6751 0001684 226.7960 133.2495 15.31168988794697 0 ISS (ZARYA) 1 25544U 98067A 26208.18492855 .00011370 00000-0 21265-3 0 9991 2 25544 51.6319 102.1568 0006995 342.0319 18.0422 15.49199954577957 0 CXO 1 25867U 99040B 26209.04610948 .00000804 00000-0 00000-0 0 9993 2 25867 56.7072 115.6151 7770389 309.8621 0.6215 0.37793771 17474 ...Continue Reading

[TLELIST] Current TLEs

July 27th 2026 PDT

0 HST 1 20580U 90037B 26208.10248366 .00006351 00000-0 19736-3 0 9996 2 20580 28.4721 167.6751 0001684 226.7960 133.2495 15.31168988794697 0 ISS (ZARYA) 1 25544U 98067A 26208.18492855 .00011370 00000-0 21265-3 0 9991 2 25544 51.6319 102.1568 0006995 342.0319 18.0422 15.49199954577957 0 CXO 1 25867U 99040B 26209.04610948 .00000804 00000-0 00000-0 0 9993 2 25867 56.7072 115.6151 7770389 309.8621 0.6215 0.37793771 17474 ...Continue Reading

[TLELIST] Current TLEs

July 26th 2026 PDT

0 HST 1 20580U 90037B 26207.12481160 .00006250 00000-0 19420-3 0 9996 2 20580 28.4719 174.3618 0001732 214.0601 145.9884 15.31157574794542 0 ISS (ZARYA) 1 25544U 98067A 26207.08830238 .00010158 00000-0 19105-3 0 9993 2 25544 51.6316 107.5836 0006935 338.3897 21.6798 15.49174705577788 0 CXO 1 25867U 99040B 26209.04610948 .00000804 00000-0 00000-0 0 9993 2 25867 56.7072 115.6151 7770389 309.8621 0.6215 0.37793771 17474 ...Continue Reading

[TLELIST] Current TLEs

July 25th 2026 PDT

0 HST 1 20580U 90037B 26205.16944587 .00006660 00000-0 20754-3 0 9992 2 20580 28.4719 187.7352 0001886 189.8128 170.2431 15.31135105794240 0 ISS (ZARYA) 1 25544U 98067A 26205.47558714 .00010646 00000-0 20005-3 0 9993 2 25544 51.6316 115.5643 0006922 332.7863 27.2762 15.49141208577538 0 CXO 1 25867U 99040B 26206.40147406 .00000689 00000-0 00000-0 0 9995 2 25867 56.6765 115.6641 7773461 309.9148 0.5404 0.37796798 17465 ...Continue Reading

[TLELIST] Current TLEs

July 24th 2026 PDT

0 HST 1 20580U 90037B 26205.16944587 .00006660 00000-0 20754-3 0 9992 2 20580 28.4719 187.7352 0001886 189.8128 170.2431 15.31135105794240 0 ISS (ZARYA) 1 25544U 98067A 26205.15303990 .00012066 00000-0 22566-3 0 9994 2 25544 51.6315 117.1603 0006931 331.5533 28.5077 15.49135191577483 0 CXO 1 25867U 99040B 26206.40147406 .00000689 00000-0 00000-0 0 9995 2 25867 56.6765 115.6641 7773461 309.9148 0.5404 0.37796798 17465 ...Continue Reading

[TLELIST] Current TLEs

July 23rd 2026 PDT

0 HST 1 20580U 90037B 26204.25693192 .00005734 00000-0 17776-3 0 9995 2 20580 28.4721 193.9755 0001928 181.0239 179.0353 15.31122099794106 0 ISS (ZARYA) 1 25544U 98067A 26204.18538858 .00009623 00000-0 18183-3 0 9994 2 25544 51.6313 121.9488 0006906 328.2241 31.8329 15.49110422577337 0 CXO 1 25867U 99040B 26206.40147406 .00000689 00000-0 00000-0 0 9995 2 25867 56.6765 115.6641 7773461 309.9148 0.5404 0.37796798 17465 ...Continue Reading

[TLELIST] Current TLEs

July 22nd 2026 PDT

0 HST 1 20580U 90037B 26203.21405009 .00005689 00000-0 17638-3 0 9994 2 20580 28.4723 201.1073 0002036 171.5650 188.4980 15.31110914793949 0 ISS (ZARYA) 1 25544U 98067A 26203.15321183 .00008859 00000-0 16818-3 0 9994 2 25544 51.6313 127.0562 0006883 324.3803 35.6725 15.49090344577176 0 CXO 1 25867U 99040B 26206.40096615 .00000689 00000-0 00000-0 0 9990 2 25867 56.6765 115.6642 7773458 309.9148 0.4716 0.37796842 17467 ...Continue Reading

[TLELIST] Current TLEs

July 21st 2026 PDT

0 HST 1 20580U 90037B 26202.23634140 .00004226 00000-0 12921-3 0 9991 2 20580 28.4721 207.7932 0002090 161.9794 198.0877 15.31099653793796 0 ISS (ZARYA) 1 25544U 98067A 26202.18553447 .00005896 00000-0 11479-3 0 9992 2 25544 51.6316 131.8443 0006849 320.6461 39.4029 15.49071756577020 0 CXO 1 25867U 99040B 26203.75757577 .00000588 00000-0 00000-0 0 9994 2 25867 56.6521 115.7083 7776512 309.9609 0.5640 0.37802015 17459 ...Continue Reading
  • This mailing list is a public mailing list - anyone may join or leave, at any time.
  • This mailing list is announce-only.

International Space Station (ISS) / Hubble Space Telescope (HST) / Chandra X-Ray Observatory Orbital Data via EMAIL

Privacy Policy:

Private list